Theta_e
352 351 352 352 354 355 356 359 360 361 362 363 364 363 361 361 360 359 360 361 361 361 361 360 358 357 357 357 358 359 359 358 358 357 356 357 355 354 353 352 351 350 350 349 349 351 352 353 351 349 351 353 353 353 353 353 354 354 355 357 356 356 356
352 352 353 353 355 356 356 359 360 361 363 364 364 363 362 362 361 360 361 361 360 360 361 361 359 358 357 357 357 358 358 358 359 358 357 357 356 355 355 353 352 352 351 349 348 348 351 353 353 351 351 353 353 354 355 354 353 352 354 356 356 355 357
353 351 353 353 354 355 355 357 359 360 362 363 363 363 363 362 361 360 360 360 360 360 360 361 361 360 358 357 356 356 355 356 358 358 357 356 356 356 355 354 353 354 353 350 348 347 349 352 354 353 352 352 353 353 355 354 352 352 352 356 356 355 357
355 353 352 353 353 353 354 356 358 359 360 361 361 361 362 363 363 361 360 360 360 359 359 360 360 359 358 356 355 354 354 354 355 356 356 356 356 356 355 354 354 354 354 352 350 348 348 351 353 354 353 353 352 352 354 354 353 352 351 354 356 355 358
356 355 354 354 353 352 353 355 357 358 357 359 360 360 361 363 362 362 360 359 359 359 359 358 357 357 356 355 355 354 354 353 353 354 354 355 356 355 355 355 354 354 353 353 352 350 350 351 352 352 353 353 352 352 353 353 352 352 352 353 355 355 356
354 355 356 355 352 351 351 353 355 356 356 358 361 361 361 362 362 362 361 360 359 358 357 357 356 355 355 355 354 355 354 353 353 354 354 354 356 355 354 354 354 354 353 353 353 352 352 351 350 349 351 352 351 351 352 353 351 350 352 353 354 354 354
354 356 356 354 351 350 350 352 354 355 357 359 362 362 362 362 361 361 360 359 358 356 354 354 354 353 353 353 353 354 354 353 353 354 355 354 354 354 354 354 354 353 353 353 353 353 353 353 350 347 348 350 350 350 351 352 350 349 351 353 354 353 353
354 355 354 353 351 348 350 355 355 356 359 361 363 363 363 362 361 361 361 358 356 355 354 352 352 351 352 352 352 352 353 352 352 352 353 354 353 354 353 353 353 353 353 353 353 353 353 354 352 348 347 348 348 349 350 351 352 349 348 350 352 353 352
357 357 354 351 348 348 353 358 357 359 361 361 362 363 363 363 362 361 360 358 355 355 353 352 352 351 351 352 352 351 351 351 351 351 352 353 353 353 352 352 353 352 352 352 352 353 352 353 354 350 348 347 347 348 349 351 352 350 348 348 350 351 351
359 358 356 354 351 352 357 361 362 363 364 364 364 364 364 363 362 360 359 357 355 353 352 352 352 351 351 352 351 351 351 350 351 352 351 352 353 353 352 352 352 352 352 352 352 351 351 353 355 353 350 348 347 348 348 350 352 351 350 348 348 350 349
360 358 358 358 357 358 360 362 364 365 366 366 366 365 364 363 363 362 360 357 355 353 352 351 350 350 350 351 351 350 350 350 351 352 352 352 352 352 352 350 351 352 352 352 352 351 350 352 354 354 353 352 349 348 348 349 351 352 351 348 347 348 348
359 360 360 360 361 362 361 362 364 366 366 366 367 366 364 362 362 361 360 358 356 354 352 350 349 350 350 351 350 350 350 350 351 352 352 352 352 351 350 349 350 352 352 351 351 350 350 351 351 352 355 354 351 348 348 349 350 351 351 348 347 348 347
358 361 362 362 362 362 363 363 363 365 366 365 365 364 363 362 360 360 359 357 354 352 350 349 350 350 350 350 350 349 350 351 351 352 351 352 352 351 350 349 350 353 352 350 349 349 349 350 350 351 354 355 354 351 349 350 350 351 351 349 347 347 346
358 360 362 362 361 361 363 363 362 364 365 364 364 362 362 361 360 359 358 355 353 352 351 350 350 351 350 350 349 349 350 351 351 352 351 351 352 352 350 349 348 351 353 350 348 350 350 349 350 352 352 353 354 352 350 351 352 351 352 350 348 346 346
353 356 359 360 360 362 363 362 362 364 364 363 362 361 361 360 359 359 357 354 353 353 352 351 351 351 350 350 349 350 351 352 352 352 351 350 351 352 350 348 347 350 352 351 349 349 349 349 350 351 351 352 353 351 350 352 353 353 352 352 350 347 346
348 350 356 357 359 361 361 361 362 363 364 363 361 360 360 359 359 359 357 355 353 353 352 352 351 351 350 350 350 350 352 354 353 353 352 350 350 350 348 348 348 348 350 351 350 349 349 349 350 350 351 352 351 350 351 352 353 352 352 352 352 349 347
347 349 351 354 359 361 360 360 361 362 363 362 360 359 359 359 359 359 358 356 353 353 353 352 352 352 351 351 351 351 353 354 353 354 352 349 349 349 349 349 349 349 349 350 350 348 348 349 349 350 352 351 351 351 352 352 352 351 351 351 351 351 351
347 350 349 352 359 360 357 357 359 359 359 360 358 359 358 359 359 358 358 356 353 353 353 352 352 352 351 352 352 353 353 353 353 354 351 349 349 349 349 348 349 348 348 348 348 348 348 348 349 350 352 352 353 353 352 352 351 350 351 351 351 351 352
346 348 349 352 357 357 355 356 358 357 358 358 358 358 358 359 359 359 358 357 354 353 353 353 353 352 352 354 354 354 353 352 352 352 351 350 350 349 349 348 348 348 347 348 348 348 349 349 349 351 352 352 352 352 352 352 351 349 349 351 351 351 351
348 348 350 351 354 354 353 355 357 357 358 359 358 358 358 359 359 358 358 356 353 353 352 353 353 352 353 355 355 355 353 352 352 351 350 351 350 350 350 348 347 348 347 347 348 348 349 350 350 350 351 351 351 351 351 352 351 350 349 350 350 350 350
351 350 351 353 354 353 354 356 357 359 360 359 358 358 358 359 359 358 357 355 353 352 353 353 352 352 353 354 355 354 353 352 352 351 350 350 350 350 349 348 347 347 348 347 347 347 348 349 349 350 350 350 350 350 351 351 351 351 350 350 350 349 349
351 350 352 354 353 353 355 355 356 359 360 360 359 358 359 360 359 358 356 354 352 353 353 352 352 352 352 353 354 354 353 352 353 352 351 350 350 350 349 348 347 347 348 348 347 347 348 348 349 349 349 350 350 350 351 351 350 350 350 349 349 348 348
346 348 350 350 351 356 357 356 358 361 361 360 359 359 359 360 360 359 356 353 352 353 353 352 352 352 351 352 352 353 353 353 353 353 352 351 351 350 349 349 348 347 348 348 348 348 348 348 348 348 349 349 349 350 350 350 349 349 348 348 348 348 348
343 347 348 347 352 357 357 358 361 361 360 359 359 360 360 360 360 359 357 354 352 353 353 352 352 352 351 351 351 352 353 354 354 354 353 352 351 351 350 350 349 348 348 348 348 349 349 348 348 348 348 349 349 349 349 349 349 348 347 347 347 347 348
342 346 347 347 348 351 354 358 360 360 359 359 360 361 360 359 359 359 358 355 352 352 352 352 352 352 352 351 351 351 352 353 353 354 353 353 352 351 351 351 349 348 348 348 348 348 348 348 348 347 348 348 348 348 348 348 348 348 347 347 347 346 348
342 346 349 346 345 350 357 359 358 358 358 359 360 361 359 359 359 358 357 355 352 351 352 352 352 353 352 352 351 351 351 351 352 353 354 354 353 352 352 351 350 350 348 347 347 347 347 348 348 348 348 347 347 348 348 348 348 348 348 348 347 347 347
344 346 348 348 349 354 356 356 356 354 355 359 361 359 358 359 359 357 356 354 352 351 352 352 353 353 352 353 352 351 352 351 352 354 354 354 353 352 352 351 351 351 350 347 345 345 345 346 348 349 349 349 348 348 348 348 348 348 348 348 347 347 347
347 346 348 350 353 353 351 354 357 356 357 360 359 358 358 358 359 358 356 354 353 352 352 353 353 353 353 353 352 352 352 351 352 353 354 353 353 352 352 352 352 351 351 350 348 347 347 348 349 350 350 350 349 349 349 349 349 349 349 348 348 347 346
349 349 350 350 352 352 351 355 359 359 360 360 358 358 358 358 358 358 356 355 355 353 352 353 353 352 352 352 352 351 351 351 351 351 352 352 353 353 353 352 352 352 351 351 350 350 350 351 350 350 348 348 348 348 348 348 349 349 349 348 348 347 346
347 350 351 350 352 354 352 355 362 362 361 360 359 359 358 358 358 358 357 357 355 352 352 353 352 352 352 351 351 351 350 350 351 350 350 351 352 353 353 352 352 352 351 351 351 350 350 350 350 347 344 344 346 346 346 347 347 347 348 348 347 347 346
344 348 350 350 353 354 354 358 363 364 362 361 361 360 359 358 358 358 358 357 355 353 352 352 352 352 352 351 351 350 349 349 349 350 350 350 350 352 353 352 352 352 352 351 351 351 350 351 350 346 344 345 345 344 345 348 347 347 347 347 347 346 346
343 345 348 351 354 354 355 358 362 363 363 362 360 360 359 358 358 359 358 357 355 354 353 351 351 352 351 350 350 350 349 349 348 348 349 349 349 350 351 352 352 352 352 352 351 351 352 351 349 348 349 349 347 346 348 351 349 347 348 347 346 346 345
344 346 348 352 355 355 356 357 359 362 363 361 359 358 357 357 358 359 358 356 355 354 353 352 351 351 350 350 349 349 349 349 348 348 348 348 349 349 349 350 350 350 351 351 350 351 351 350 349 349 350 350 349 349 350 351 350 350 349 348 347 347 347
347 349 349 352 355 356 357 358 358 360 362 360 357 356 356 357 357 357 357 355 353 354 354 353 351 350 350 349 348 348 349 348 348 348 348 348 349 348 348 349 348 348 350 351 350 350 350 350 350 350 349 350 350 350 349 349 349 350 350 349 349 348 347
347 349 348 349 353 355 357 358 358 359 361 360 357 355 356 357 357 357 357 354 353 355 354 353 352 351 350 348 348 348 348 348 348 348 348 348 349 348 348 348 348 348 349 350 350 350 350 350 350 350 349 349 349 349 349 348 349 349 349 348 349 348 348
345 347 346 347 350 353 356 358 358 358 359 359 358 357 357 358 358 357 357 355 355 356 355 353 353 352 351 349 347 347 348 348 348 348 348 348 348 348 347 347 347 347 348 348 348 348 348 349 349 349 349 349 348 349 349 349 349 349 347 346 347 347 347
342 344 344 346 350 352 354 356 358 359 359 359 358 357 358 359 358 357 356 356 356 356 355 354 353 352 351 350 348 347 347 347 347 348 348 348 348 348 347 346 346 347 347 346 347 346 346 346 346 346 347 347 347 347 347 347 347 346 346 345 345 345 345
340 342 342 343 347 351 353 354 357 358 358 358 357 357 356 357 357 357 357 358 357 355 355 355 354 352 351 349 348 348 348 348 347 348 348 348 348 347 347 346 346 346 345 345 346 345 345 344 343 343 344 344 345 345 345 345 345 345 344 344 343 343 342
Wind_Speed
6 7 7 6 7 7 7 8 8 9 9 10 9 10 10 11 11 12 12 14 16 15 16 17 18 18 19 19 19 18 18 17 16 17 17 16 15 16 16 16 18 18 19 19 19 20 19 18 20 20 20 19 19 18 17 17 16 15 13 12 12 11 11
6 6 6 6 6 7 7 7 8 9 9 9 9 9 11 11 12 12 12 13 15 15 16 17 18 18 18 19 19 19 19 18 16 16 16 16 16 17 17 17 17 18 19 19 19 20 20 20 20 21 20 20 20 19 18 18 18 17 15 14 13 12 11
5 6 6 6 6 6 6 7 8 9 9 9 9 10 11 11 12 12 12 13 14 15 15 16 17 18 18 18 19 19 19 19 18 17 17 18 18 18 18 18 17 17 18 19 20 20 21 21 21 21 21 21 20 20 19 18 19 19 17 14 14 14 13
6 6 6 6 6 6 6 7 8 9 9 9 10 10 11 11 11 11 12 12 13 14 15 15 15 15 16 16 18 18 19 20 20 20 20 20 19 19 19 19 18 18 18 19 20 20 21 22 22 22 22 21 21 21 20 19 19 19 18 16 15 15 14
7 6 6 6 6 6 6 7 8 9 10 10 10 9 10 10 10 10 11 10 11 12 12 13 13 13 13 15 17 18 19 20 21 22 23 22 21 20 20 20 20 20 19 19 20 21 21 22 23 23 23 23 22 22 21 21 20 19 19 18 16 16 15
6 6 6 6 7 7 7 8 9 10 9 10 10 9 9 10 10 10 9 9 9 9 9 9 10 11 12 13 15 16 18 20 21 22 23 23 22 21 21 22 21 21 22 21 20 22 22 22 24 25 25 25 24 24 22 22 22 21 20 19 17 17 17
6 6 6 6 7 7 7 7 8 9 9 9 9 9 9 9 9 10 9 8 8 8 8 8 9 10 10 12 13 14 16 18 19 21 22 22 23 23 22 23 23 22 22 22 21 22 23 23 24 26 26 26 26 26 24 22 23 22 20 20 19 18 17
6 6 6 7 7 6 6 7 8 9 8 8 9 9 9 9 9 9 9 8 8 8 9 9 9 9 10 11 12 13 15 16 18 19 21 21 23 24 24 24 25 25 24 24 23 22 22 22 23 25 26 26 26 26 25 23 23 23 22 21 20 19 19
6 5 5 6 6 5 5 6 7 7 8 8 8 8 9 9 9 9 9 8 8 8 8 8 8 8 10 11 11 13 14 15 17 19 20 20 21 24 26 25 25 26 26 26 25 25 24 23 23 24 26 26 26 26 26 24 23 23 23 22 21 20 20
6 5 5 5 5 4 5 6 6 6 7 7 8 8 8 8 8 8 8 7 6 6 7 7 7 7 9 10 10 11 12 14 16 18 20 20 20 23 26 27 26 26 27 26 25 28 28 24 22 22 24 25 25 25 25 24 23 23 23 23 22 21 21
6 6 6 6 6 5 5 6 6 6 6 7 7 7 8 8 8 8 8 7 6 5 6 7 6 7 8 9 10 10 12 14 15 16 18 19 20 22 26 29 28 26 26 26 26 28 28 26 23 21 21 23 24 24 25 24 23 23 23 23 22 21 21
6 6 6 6 6 6 6 5 5 6 6 6 6 7 7 8 8 7 7 6 6 5 6 7 7 8 9 9 9 9 11 13 12 13 15 17 21 24 26 28 27 25 28 31 29 27 26 27 26 22 20 21 22 22 23 23 23 22 22 23 22 21 21
6 5 5 6 6 6 6 5 6 6 7 7 7 6 7 7 7 7 7 7 6 6 6 8 8 8 9 9 9 9 10 11 11 11 13 15 18 21 25 27 26 24 28 32 31 27 26 27 27 24 20 18 19 21 21 21 22 21 21 22 22 21 21
6 6 5 5 5 6 6 6 6 6 7 7 7 7 6 6 6 6 7 7 7 7 7 8 8 9 9 9 9 9 9 9 9 10 13 14 15 18 22 27 29 26 26 30 32 30 29 31 29 26 23 19 18 22 22 19 19 18 18 20 21 21 20
7 7 6 6 6 6 5 5 6 6 7 8 7 7 6 6 6 6 7 7 7 8 8 8 9 9 9 9 9 9 8 8 7 9 11 13 14 17 21 26 29 29 26 27 31 32 31 32 30 25 24 23 20 21 19 16 17 18 16 17 19 20 20
7 7 7 6 6 5 5 5 6 6 7 8 8 8 7 7 7 7 8 8 8 9 9 9 9 9 9 9 10 9 7 6 7 8 9 11 13 16 22 27 30 29 24 22 27 30 31 32 29 23 22 22 21 21 19 16 19 22 21 20 19 18 19
7 6 7 6 5 5 5 5 6 6 7 7 7 7 8 7 7 8 8 8 9 9 9 8 8 9 9 9 9 7 5 5 6 8 8 9 10 13 17 20 26 27 23 22 25 28 30 31 28 24 21 20 19 21 20 18 19 22 22 23 22 19 18
6 7 6 6 5 5 5 5 6 6 6 7 7 7 8 8 8 8 8 8 9 8 8 8 8 8 8 7 7 5 4 4 5 7 7 7 7 7 6 6 20 22 21 23 25 25 27 29 27 24 22 19 18 19 20 19 21 23 21 20 23 23 20
5 6 6 6 6 6 6 5 5 6 6 7 7 7 8 8 8 8 8 8 8 7 7 7 7 8 7 5 5 4 5 5 4 5 5 5 4 3 4 8 14 17 18 21 22 22 23 24 25 23 20 18 17 18 18 18 20 23 22 21 23 25 23
4 6 6 5 6 6 5 5 5 6 6 7 7 7 7 7 7 7 6 7 7 7 7 7 7 7 5 4 4 4 4 4 4 2 2 2 3 3 5 8 11 13 15 16 18 18 18 19 21 21 18 17 16 17 17 17 18 20 21 21 21 23 23
4 6 6 6 6 6 6 6 6 6 6 7 7 7 7 7 8 7 7 7 7 7 6 6 6 5 5 4 4 4 4 3 2 2 1 1 2 3 5 8 10 12 13 14 16 17 17 18 18 18 18 16 16 16 16 16 17 19 20 21 22 23 22
4 6 6 6 6 6 6 6 6 6 7 7 8 8 7 8 8 8 8 7 7 6 6 5 5 4 4 4 4 4 3 1 1 2 2 3 3 4 5 7 9 11 12 14 15 16 17 17 17 17 18 17 16 17 17 16 16 17 19 20 22 23 22
4 5 7 7 7 7 7 7 7 7 7 8 8 7 7 8 8 8 8 7 6 6 6 5 5 4 4 5 4 4 3 2 1 2 3 3 4 4 5 6 7 9 11 12 14 15 15 16 17 18 18 17 17 18 17 16 16 17 19 19 20 22 22
5 5 7 8 8 9 9 8 8 8 9 9 8 7 7 8 8 9 9 8 6 6 6 5 5 5 5 4 5 4 4 3 3 4 4 4 5 5 5 6 6 7 8 9 11 12 13 14 16 18 19 19 19 18 18 16 16 17 20 21 21 21 21
5 5 6 8 9 10 10 9 9 9 9 9 9 8 8 8 8 8 8 7 6 6 6 5 5 5 5 4 5 5 6 5 5 5 5 5 5 5 6 6 6 7 7 8 10 11 12 12 14 16 18 19 19 20 19 17 16 17 20 20 21 22 21
5 4 5 8 9 11 11 11 10 10 10 10 10 10 9 9 8 8 7 6 6 6 5 5 5 5 5 5 5 6 6 7 6 6 5 5 6 5 5 6 7 8 8 9 11 11 11 13 13 14 15 17 18 18 18 18 18 19 19 19 20 23 21
6 4 4 4 7 11 11 10 10 9 10 10 11 11 11 9 9 8 7 6 6 6 5 5 5 5 5 5 5 6 6 7 7 7 6 5 6 6 6 6 6 8 8 9 10 10 11 12 12 12 12 13 15 16 16 17 18 18 18 18 19 21 21
9 5 4 2 2 7 9 10 10 10 10 12 12 12 11 10 9 8 8 7 6 6 5 5 5 5 5 5 5 5 6 6 6 7 7 7 7 7 6 6 6 6 7 8 9 9 10 9 9 8 9 9 12 14 15 16 16 17 18 19 18 18 21
12 8 5 4 3 5 7 8 10 10 11 12 13 13 12 11 10 9 8 7 6 5 5 5 6 6 5 5 4 4 4 4 5 6 7 8 8 7 6 7 6 6 7 6 7 8 8 8 7 7 8 9 10 12 13 14 15 16 18 19 18 18 20
12 11 8 6 3 2 4 6 9 10 11 11 12 12 12 11 11 10 9 8 7 7 6 6 6 5 4 4 4 3 4 4 4 5 6 7 9 8 7 8 7 6 6 6 6 7 7 7 7 7 8 10 10 10 11 12 14 16 17 19 18 17 18
12 12 10 8 6 4 3 4 7 10 11 11 11 10 10 10 10 10 10 9 9 9 9 7 6 5 4 4 4 3 4 4 5 5 5 6 8 9 9 9 8 7 6 6 6 6 6 7 7 8 9 10 10 10 10 11 12 14 16 17 17 17 18
11 13 12 11 8 6 4 2 5 9 11 11 11 11 10 10 10 10 10 10 11 11 10 9 8 6 5 4 3 3 4 4 5 5 5 5 7 7 8 9 10 8 7 7 7 6 6 6 7 7 8 8 8 9 8 8 9 11 11 12 14 16 17
9 11 12 11 10 7 5 3 5 7 10 12 12 12 12 11 11 10 10 11 12 12 11 9 8 7 6 5 4 4 4 5 5 5 5 5 5 5 6 8 9 10 9 8 8 7 7 7 7 7 7 6 7 7 6 6 7 8 8 9 11 12 13
9 9 10 10 10 8 6 5 5 6 9 12 13 13 13 13 13 13 13 12 12 12 12 11 9 8 7 6 5 4 4 4 4 5 5 6 5 4 4 5 6 7 8 8 7 7 7 7 7 7 7 6 6 6 7 8 8 8 8 9 9 8 8
10 10 9 9 9 8 7 6 5 6 9 12 13 14 15 16 16 17 16 15 15 15 14 13 11 10 9 7 6 6 5 5 6 6 6 6 5 4 4 4 3 3 4 5 6 8 7 7 7 7 6 6 6 6 7 8 8 9 10 11 11 11 9
11 10 9 8 8 9 8 7 6 7 9 11 13 14 16 17 18 19 18 17 18 18 17 16 14 13 11 10 8 7 7 7 8 7 7 7 6 5 5 5 5 4 3 4 6 9 8 7 6 7 6 6 6 7 7 7 7 9 11 12 12 12 10
11 10 9 8 8 8 8 8 8 9 10 12 12 14 15 16 18 19 19 19 19 20 19 17 16 14 14 13 11 9 9 8 8 8 8 8 8 7 7 7 7 7 6 5 6 8 8 7 7 7 7 6 6 7 9 8 7 7 8 9 9 9 7
12 11 10 8 6 6 7 7 8 10 11 12 12 13 15 16 15 16 17 19 20 20 19 18 15 14 14 14 13 12 11 9 9 9 10 9 9 9 9 8 8 8 8 8 8 8 8 8 7 7 7 6 5 6 8 8 8 7 8 8 9 9 8
Wind_Direction
163 166 182 186 189 198 196 192 192 186 186 189 189 189 188 187 187 186 188 192 194 197 196 196 200 204 205 206 209 210 209 209 208 208 210 212 213 208 204 204 204 206 208 207 207 205 204 204 203 205 203 201 202 201 200 200 199 201 199 196 198 195 196
168 166 172 182 182 189 190 183 184 181 180 183 183 185 185 183 185 187 188 191 195 199 199 200 203 205 207 209 211 213 212 212 211 211 212 214 214 210 206 206 207 208 209 211 212 210 207 205 204 205 204 203 204 202 202 202 202 204 203 199 200 198 198
172 169 169 182 178 178 184 180 179 179 178 182 184 185 185 183 185 187 188 191 195 200 202 204 205 206 209 212 216 220 220 219 216 215 217 218 217 214 212 211 211 210 210 212 213 212 210 207 204 205 204 204 205 203 203 204 204 207 206 202 203 200 196
169 173 166 173 174 175 182 180 181 180 181 186 185 185 183 180 182 185 190 194 196 199 204 208 211 212 214 218 223 227 228 228 225 223 223 222 220 219 218 215 212 211 211 213 214 212 211 209 205 204 204 206 207 205 205 206 205 207 207 205 205 204 198
165 169 163 171 178 180 184 184 184 183 183 184 181 182 179 176 180 185 190 196 198 202 207 212 217 219 221 225 229 231 232 234 233 231 229 227 223 221 222 220 215 214 213 213 214 213 210 209 208 207 206 207 208 207 207 207 207 206 206 207 208 206 203
166 166 165 181 187 184 187 187 184 183 183 180 176 176 174 174 179 182 185 188 191 198 205 213 220 222 222 226 229 233 236 236 236 236 234 231 227 224 225 224 222 220 217 213 213 213 211 209 210 210 209 209 210 210 208 208 209 208 205 207 209 209 208
166 166 169 182 191 190 186 184 181 180 181 175 171 171 171 173 174 174 176 178 181 188 194 204 214 221 224 226 229 232 236 238 237 237 237 235 231 227 227 228 226 224 221 216 214 214 212 210 210 211 212 212 212 211 210 209 209 208 207 206 208 210 211
157 165 174 181 192 191 179 181 183 179 178 176 173 173 172 170 168 167 168 168 171 178 186 195 204 214 225 227 229 231 233 239 241 238 238 237 234 230 229 232 230 227 223 220 217 213 212 211 211 211 213 214 214 213 212 210 209 209 208 209 208 209 211
149 157 170 178 190 187 171 177 181 176 180 183 182 180 175 170 168 168 167 165 170 178 186 192 195 209 224 229 233 235 236 240 242 241 239 235 234 233 232 233 233 229 226 224 220 216 215 214 212 211 212 213 214 214 213 211 210 210 209 210 210 210 212
150 153 161 173 182 174 163 167 168 169 180 186 187 184 176 171 167 164 165 167 176 191 197 194 194 209 222 229 237 242 245 245 243 242 239 235 233 233 233 233 232 231 229 227 223 218 217 215 211 208 210 212 213 213 213 212 211 211 211 210 211 213 214
155 156 164 173 174 170 168 166 165 168 175 182 185 180 173 171 167 162 163 170 181 195 202 203 210 218 222 230 240 247 253 254 250 245 242 241 239 236 235 235 232 229 227 225 222 219 217 214 210 208 207 210 212 212 211 212 213 213 212 212 213 214 215
159 164 173 176 175 174 172 170 167 166 167 171 174 172 170 173 174 170 168 176 184 189 204 216 220 220 221 230 240 251 260 261 258 252 246 245 244 242 240 236 229 226 226 225 222 218 217 214 212 212 210 207 210 212 211 211 214 215 214 215 216 216 218
161 167 173 174 177 175 171 173 168 162 161 161 162 163 167 174 180 181 183 190 195 200 216 221 216 217 221 228 236 249 264 266 260 255 253 250 247 246 243 237 230 225 226 228 225 216 212 213 212 211 210 208 208 210 212 213 215 217 216 215 217 218 219
162 167 170 175 185 181 176 174 165 159 157 155 159 162 166 177 183 187 195 200 198 202 213 215 213 217 220 225 234 244 260 267 261 259 261 258 252 248 246 242 235 226 222 225 223 215 211 212 210 206 207 209 209 210 215 219 213 212 216 216 217 219 219
176 178 178 186 194 185 179 175 161 159 158 155 163 169 172 185 189 191 197 198 197 201 208 211 214 220 221 223 232 242 255 266 267 265 265 265 259 253 252 248 238 227 221 219 216 213 210 209 207 204 204 208 210 212 221 224 208 204 214 216 217 221 221
184 184 187 196 198 183 177 174 158 156 159 159 168 177 182 192 196 195 194 194 200 209 210 210 216 224 227 228 233 242 254 266 272 271 272 275 270 265 265 256 237 224 217 212 209 207 203 202 203 202 201 205 206 206 212 216 206 205 211 211 211 219 223
183 186 193 196 192 178 172 170 162 158 161 165 172 180 188 195 197 196 193 194 204 212 211 211 219 228 232 236 239 242 249 267 280 279 283 289 287 292 288 254 219 208 208 209 209 207 204 203 202 197 193 194 195 197 202 205 206 208 210 210 209 214 221
182 183 195 193 181 177 177 174 172 168 166 170 175 184 191 193 193 194 194 197 204 208 207 209 220 230 234 238 242 236 232 251 274 280 294 311 313 324 333 191 182 189 200 202 201 200 198 199 197 190 186 186 188 195 202 206 209 212 211 210 211 213 217
187 179 194 192 175 176 183 179 177 174 170 172 179 189 193 190 190 192 193 196 199 202 205 208 218 231 232 231 235 232 228 235 253 276 304 335 353 23 93 138 162 177 186 187 187 186 186 190 193 191 190 191 194 200 206 210 215 216 213 213 216 218 219
197 182 188 185 174 172 175 173 171 167 166 170 176 183 185 183 184 184 183 188 196 203 208 209 219 230 226 220 226 229 230 234 235 253 306 356 32 87 136 154 165 174 180 182 183 183 185 192 197 197 195 195 200 206 209 211 215 216 214 215 220 224 224
204 197 190 177 171 167 160 164 165 162 163 168 169 173 177 177 175 171 172 180 190 204 212 213 219 227 225 220 225 230 236 241 227 208 169 123 103 113 147 163 169 175 180 184 185 187 192 197 198 200 200 201 204 208 210 211 213 214 215 218 223 227 226
215 204 198 184 174 165 158 162 163 159 159 161 165 172 176 173 168 165 170 177 184 197 210 213 214 222 229 229 225 229 233 239 236 208 171 144 142 145 157 169 177 181 183 185 188 191 195 198 200 202 205 205 206 208 211 212 215 218 221 224 228 228 225
260 214 201 186 164 149 145 148 148 149 151 155 164 173 173 170 165 162 166 173 184 197 203 208 211 215 225 229 227 221 208 195 215 206 174 162 168 168 168 176 184 188 189 189 191 194 197 200 202 203 203 204 206 210 213 215 217 220 225 229 231 227 223
283 236 203 178 152 141 142 142 143 147 151 156 163 167 168 168 166 163 165 170 182 196 202 208 214 214 217 221 219 209 189 187 202 192 173 176 182 176 174 180 187 191 192 192 193 196 199 202 204 205 205 207 209 211 214 215 216 219 223 229 231 227 222
291 253 207 182 164 152 147 142 142 147 154 161 162 163 166 168 167 167 166 169 181 194 204 212 212 212 216 214 209 201 192 191 190 180 174 177 178 177 175 175 183 189 192 199 203 202 203 206 210 211 212 214 215 217 218 219 219 221 223 226 227 225 221
311 285 233 196 170 149 142 144 150 157 164 167 163 161 163 163 166 170 166 168 185 199 208 214 209 204 204 202 199 196 197 197 186 174 177 175 166 167 169 169 176 178 182 200 210 209 209 213 213 211 212 215 217 219 222 221 221 223 224 224 225 222 218
346 313 273 214 159 147 150 156 163 168 169 166 161 161 163 165 166 168 168 173 189 203 208 211 207 200 196 195 193 192 199 203 188 175 176 174 164 163 166 174 182 180 180 192 202 204 208 211 212 210 209 213 217 220 222 220 220 223 224 225 225 221 214
5 344 315 314 167 166 163 160 163 167 165 163 164 164 166 169 169 169 174 181 191 201 202 200 202 201 195 189 191 195 202 207 199 184 177 174 171 168 169 177 184 186 187 191 195 198 199 199 205 210 209 210 217 222 225 224 222 225 226 227 228 222 214
9 4 348 319 257 207 180 162 160 166 165 163 166 168 169 171 172 173 180 185 187 189 190 194 200 201 195 187 186 196 204 208 210 202 188 180 177 173 172 178 182 188 191 192 197 200 197 193 197 206 218 225 224 224 229 230 226 226 229 231 231 226 219
10 8 360 341 316 247 207 175 160 160 163 163 165 169 172 175 175 176 180 181 177 178 183 192 197 198 196 189 182 192 204 209 213 211 201 191 182 174 173 178 182 188 191 192 200 204 200 197 195 202 221 230 230 228 229 227 225 226 229 231 232 230 227
6 6 4 360 358 340 285 205 167 161 160 160 162 164 171 180 183 181 180 175 172 176 180 186 192 196 198 194 190 198 205 210 212 211 212 207 196 186 180 180 184 190 190 191 200 208 209 200 192 200 211 212 214 219 215 211 216 221 222 225 230 232 231
3 2 2 3 3 348 317 250 190 173 160 154 157 162 171 183 189 186 180 174 173 176 177 179 186 191 193 194 197 206 208 211 213 210 214 220 213 203 193 186 188 190 189 192 198 205 216 212 200 206 210 201 203 211 202 196 209 214 212 217 225 229 231
356 357 355 355 354 344 319 275 226 192 166 158 163 171 176 182 186 185 179 176 177 176 172 174 183 186 187 192 199 206 211 216 216 210 212 217 219 220 213 202 199 196 193 197 201 204 215 221 214 215 216 206 206 205 188 191 212 213 208 214 221 225 229
340 343 344 347 346 340 323 293 258 212 183 174 175 178 181 181 185 186 182 179 181 176 169 171 181 185 185 188 196 202 208 213 214 212 214 215 211 218 223 217 217 214 203 197 198 205 213 218 218 219 219 217 216 205 195 206 219 218 213 215 215 213 215
324 322 329 338 338 332 317 293 266 227 204 196 189 185 184 186 189 190 185 181 179 175 172 173 178 184 185 185 190 193 195 204 210 211 211 206 197 203 217 215 220 226 204 190 200 212 218 220 220 220 221 223 224 218 215 219 220 219 218 214 209 206 207
312 312 318 326 329 327 320 298 265 234 217 211 205 197 194 193 193 191 188 182 178 177 176 176 178 181 183 183 188 191 191 198 205 208 208 199 188 194 215 223 224 224 207 196 209 217 219 222 224 222 218 218 218 217 219 216 215 224 228 221 213 211 214
299 302 307 312 317 322 325 314 282 250 227 217 216 215 212 206 200 194 189 185 182 180 180 180 181 182 182 182 183 186 192 198 198 197 200 198 191 192 201 209 215 219 217 208 202 204 208 216 223 222 217 216 217 216 215 213 214 221 218 205 198 199 201
289 291 294 299 300 300 309 310 292 268 249 233 226 227 230 227 216 203 194 189 185 182 182 184 187 187 185 183 178 177 186 198 195 190 194 196 194 196 199 200 201 204 208 210 204 198 201 209 215 217 214 215 219 217 212 209 207 201 188 178 179 185 191